Moab, UT

7:03 AM MDT on September 28, 2016 (GMT -0600)
Canyonlands

Weather History for KCNY - June, 2012

Change the Weather History Date:

Friday, June 8, 2012

  Actual Average Record
Temperature  
Mean Temperature 73 °F 70 °F  
Max Temperature 94 °F 88 °F 104 °F (1985)
Min Temperature 52 °F 53 °F 39 °F (1950)
Degree Days  
Heating Degree Days 0 1  
Month to date heating degree days 0 10  
Since 1 June heating degree days 0 10  
Since 1 July heating degree days 5097 5570  
Cooling Degree Days 8 6  
Month to date cooling degree days 79 44  
Year to date cooling degree days 163 108  
Since 1 June cooling degree days 79 44  
Growing Degree Days 24 (Base 50)    
Moisture  
Dew Point 12 °F    
Average Humidity 11    
Maximum Humidity 17    
Minimum Humidity 4    
Precipitation  
Precipitation 0.00 in 0.01 in 0.32 in (1969)
Month to date precipitation T 0.13  
Year to date precipitation 0.65 3.33  
Sea Level Pressure  
Sea Level Pressure 29.67 in    
Wind  
Wind Speed 11 mph (SSW)    
Max Wind Speed 30 mph    
Max Gust Speed 37 mph    
Visibility 10 miles    
Events      
T = Trace of Precipitation, MM = Missing Value Source: NWS Daily Summary

Daily Weather History Graph

Daily Weather History Graph

Search for Another Location

Airport or City:

Trip Planner

Search our weather history database for the weather conditions in past years. The results will help you decide how hot, cold, wet, or windy it might be!

Date:

Astronomy

Jun. 08, 2012 Rise Set
Actual Time 5:53 AM MDT 8:42 PM MDT
Civil Twilight 5:22 AM MDT 9:14 PM MDT
Nautical Twilight 4:42 AM MDT 9:54 PM MDT
Astronomical Twilight 3:57 AM MDT 10:39 PM MDT
Moon No Moon Rise 10:35 AM MDT (6/8)
Length of Visible Light 15h 52m
Length of Day
14h 48m
Waning Gibbous, 77% of the Moon is Illuminated
Jun 8
Waning Gibbous
Jun 11
Last Quarter
Jun 19
New
Jun 26
First Quarter
Jul 3
Full

Hourly Weather History & Observations

Time (MDT) Temp. Dew Point Humidity Pressure Visibility Wind Dir Wind Speed Gust Speed Precip Events Conditions
12:53 AM 60.8 °F 10.4 °F 14% 29.90 in 10.0 mi Calm Calm - N/A   Clear
1:53 AM 57.0 °F 10.0 °F 15% 29.75 in 10.0 mi WSW 3.5 mph - N/A   Clear
2:53 AM 57.9 °F 12.0 °F 16% 29.73 in 10.0 mi Calm Calm - N/A   Clear
3:53 AM 55.0 °F 10.0 °F 17% 29.74 in 10.0 mi WSW 4.6 mph - N/A   Clear
4:53 AM 54.0 °F 9.0 °F 17% 29.76 in 10.0 mi Calm Calm - N/A   Clear
5:53 AM 57.0 °F 10.9 °F 16% 29.76 in 10.0 mi Calm Calm - N/A   Clear
6:53 AM 54.0 °F 9.0 °F 17% 29.78 in 10.0 mi Calm Calm - N/A   Clear
7:53 AM 66.0 °F 14.0 °F 13% 29.77 in 10.0 mi SE 3.5 mph - N/A   Clear
8:53 AM 75.0 °F 16.0 °F 11% 29.76 in 10.0 mi SE 6.9 mph - N/A   Clear
9:53 AM 78.1 °F 15.1 °F 9% 29.75 in 10.0 mi Variable 4.6 mph - N/A   Clear
10:53 AM 82.9 °F 15.1 °F 8% 29.73 in 10.0 mi ESE 8.1 mph - N/A   Clear
11:53 AM 89.1 °F 14.0 °F 6% 29.70 in 10.0 mi WSW 13.8 mph 21.9 mph N/A   Clear
12:04 PM 89.6 °F 14.0 °F 6% 29.87 in 10.0 mi SSW 17.3 mph 26.5 mph N/A   Clear
12:53 PM 91.0 °F 14.0 °F 6% 29.66 in 10.0 mi SW 13.8 mph 24.2 mph N/A   Clear
3:53 PM 93.0 °F 10.0 °F 5% 29.60 in 10.0 mi SSW 17.3 mph 31.1 mph N/A   Clear
4:53 PM 93.9 °F 9.0 °F 4% 29.57 in 10.0 mi WSW 26.5 mph 33.4 mph N/A   Clear
5:53 PM 91.9 °F 8.1 °F 4% 29.55 in 10.0 mi SW 20.7 mph 28.8 mph N/A   Clear
6:53 PM 90.0 °F 12.0 °F 6% 29.54 in 10.0 mi SW 17.3 mph 28.8 mph N/A   Clear
7:53 PM 88.0 °F 14.0 °F 6% 29.51 in 10.0 mi SSW 23.0 mph 28.8 mph N/A   Clear
8:53 PM 84.9 °F 14.0 °F 7% 29.49 in 10.0 mi SSW 12.7 mph - N/A   Clear
9:53 PM 79.0 °F 15.1 °F 9% 29.50 in 10.0 mi SW 10.4 mph - N/A   Clear
10:53 PM 75.9 °F 15.1 °F 10% 29.50 in 10.0 mi SW 12.7 mph - N/A   Clear
11:53 PM 73.0 °F 16.0 °F 11% 29.49 in 10.0 mi SW 10.4 mph - N/A   Clear